| time (UTC) | temp C | wind direction | speed KPH | gust KPH | rain 1hr cm | rain 24hr cm | rain mn cm | humidity % | barometer mb |
| 20260507070331 | 6 | 86 | 0.0 | 0.0 | 0.00 | 0.00 | 0.00 | 86 | 1016.9 |
| 20260507065826 | 6 | 86 | 0.0 | 0.0 | 0.00 | 0.00 | 0.00 | 86 | 1016.9 |
| 20260507065320 | 6 | 86 | 0.0 | 0.0 | 0.00 | 0.00 | 0.00 | 85 | 1016.9 |
| 20260507064815 | 6 | 86 | 0.0 | 0.0 | 0.00 | 0.00 | 0.00 | 86 | 1016.8 |
| 20260507064328 | 7 | 86 | 0.0 | 1.6 | 0.00 | 0.00 | 0.00 | 85 | 1016.8 |
| 20260507063822 | 7 | 86 | 0.0 | 1.6 | 0.00 | 0.00 | 0.00 | 85 | 1016.9 |
| 20260507063321 | 7 | 86 | 0.0 | 1.6 | 0.00 | 0.00 | 0.00 | 85 | 1016.8 |
| 20260507062815 | 7 | 86 | 0.0 | 1.6 | 0.00 | 0.00 | 0.00 | 85 | 1016.6 |
| 20260507062330 | 7 | 86 | 0.0 | 1.6 | 0.00 | 0.00 | 0.00 | 84 | 1016.5 |
| 20260507061825 | 7 | 86 | 0.0 | 3.2 | 0.00 | 0.00 | 0.00 | 84 | 1016.7 |
| 20260507060816 | 7 | 86 | 1.6 | 3.2 | 0.00 | 0.00 | 0.00 | 85 | 1016.7 |
| 20260507060330 | 7 | 86 | 1.6 | 3.2 | 0.00 | 0.00 | 0.00 | 85 | 1016.8 |
| 20260507055825 | 7 | 86 | 0.0 | 3.2 | 0.00 | 0.00 | 0.00 | 84 | 1016.8 |
| 20260507055323 | 7 | 86 | 1.6 | 3.2 | 0.00 | 0.00 | 0.00 | 84 | 1016.7 |
| 20260507054817 | 7 | 349 | 0.0 | 3.2 | 0.00 | 0.00 | 0.00 | 83 | 1016.7 |
| 20260507054331 | 7 | 349 | 1.6 | 4.8 | 0.00 | 0.00 | 0.00 | 82 | 1016.8 |
| 20260507053826 | 7 | 355 | 3.2 | 4.8 | 0.00 | 0.00 | 0.00 | 82 | 1016.7 |
| 20260507053320 | 8 | 9 | 0.0 | 4.8 | 0.00 | 0.00 | 0.00 | 82 | 1016.6 |
| 20260507052813 | 8 | 9 | 1.6 | 4.8 | 0.00 | 0.00 | 0.00 | 83 | 1016.6 |
| 20260507052328 | 8 | 15 | 1.6 | 4.8 | 0.00 | 0.00 | 0.00 | 83 | 1016.5 |
| 20260507051826 | 8 | 99 | 0.0 | 4.8 | 0.00 | 0.00 | 0.00 | 84 | 1016.4 |
| 20260507050818 | 7 | 35 | 1.6 | 4.8 | 0.00 | 0.00 | 0.00 | 85 | 1016.4 |
| 20260507050332 | 7 | 5 | 0.0 | 3.2 | 0.00 | 0.00 | 0.00 | 85 | 1016.4 |
| 20260507045825 | 7 | 5 | 0.0 | 0.0 | 0.00 | 0.00 | 0.00 | 86 | 1016.5 |
| 20260507045320 | 7 | 5 | 0.0 | 1.6 | 0.00 | 0.00 | 0.00 | 86 | 1016.5 |
| 20260507044814 | 7 | 5 | 0.0 | 1.6 | 0.00 | 0.00 | 0.00 | 86 | 1016.6 |
| 20260507044329 | 7 | 5 | 0.0 | 1.6 | 0.00 | 0.00 | 0.00 | 85 | 1016.6 |
| 20260507043828 | 7 | 5 | 0.0 | 0.0 | 0.00 | 0.00 | 0.00 | 85 | 1016.6 |
| 20260507043322 | 7 | 5 | 0.0 | 0.0 | 0.00 | 0.00 | 0.00 | 84 | 1016.6 |
| 20260507042816 | 7 | 5 | 0.0 | 0.0 | 0.00 | 0.00 | 0.00 | 83 | 1016.6 |
| 20260507041828 | 8 | 5 | 0.0 | 0.0 | 0.00 | 0.00 | 0.00 | 83 | 1016.6 |
| 20260507040819 | 8 | 5 | 0.0 | 0.0 | 0.00 | 0.00 | 0.00 | 82 | 1016.5 |
| 20260507040314 | 8 | 5 | 0.0 | 0.0 | 0.00 | 0.00 | 0.00 | 81 | 1016.4 |
| 20260507035812 | 8 | 5 | 0.0 | 0.0 | 0.00 | 0.00 | 0.00 | 80 | 1016.3 |
| 20260507035326 | 9 | 5 | 0.0 | 0.0 | 0.00 | 0.00 | 0.00 | 78 | 1016.3 |
| 20260507034820 | 9 | 5 | 0.0 | 0.0 | 0.00 | 0.00 | 0.00 | 77 | 1016.4 |
| 20260507034314 | 9 | 5 | 0.0 | 0.0 | 0.00 | 0.00 | 0.00 | 76 | 1016.2 |
| 20260507033829 | 10 | 5 | 0.0 | 1.6 | 0.00 | 0.00 | 0.00 | 75 | 1016.1 |
| 20260507033324 | 10 | 5 | 0.0 | 1.6 | 0.00 | 0.00 | 0.00 | 75 | 1015.9 |
| 20260507032819 | 10 | 5 | 0.0 | 1.6 | 0.00 | 0.00 | 0.00 | 74 | 1015.9 |
| 20260507032314 | 10 | 5 | 0.0 | 3.2 | 0.00 | 0.00 | 0.00 | 73 | 1015.9 |
| 20260507031812 | 10 | 5 | 0.0 | 3.2 | 0.00 | 0.00 | 0.00 | 72 | 1015.9 |
| 20260507031326 | 11 | 5 | 1.6 | 3.2 | 0.00 | 0.00 | 0.00 | 71 | 1016.0 |
| 20260507030821 | 11 | 5 | 0.0 | 3.2 | 0.00 | 0.00 | 0.00 | 71 | 1016.1 |
| 20260507025813 | 11 | 5 | 3.2 | 6.4 | 0.00 | 0.00 | 0.00 | 70 | 1015.9 |
| 20260507024321 | 11 | 355 | 3.2 | 6.4 | 0.00 | 0.00 | 0.00 | 69 | 1015.9 |
| 20260507023316 | 11 | 11 | 4.8 | 6.4 | 0.00 | 0.00 | 0.00 | 68 | 1015.7 |
| 20260507022830 | 12 | 355 | 3.2 | 6.4 | 0.00 | 0.00 | 0.00 | 68 | 1015.6 |
| 20260507022325 | 12 | 360 | 3.2 | 6.4 | 0.00 | 0.00 | 0.00 | 67 | 1015.6 |
| 20260507021820 | 12 | 5 | 3.2 | 6.4 | 0.00 | 0.00 | 0.00 | 67 | 1015.6 |
| 20260507020811 | 12 | 355 | 3.2 | 8.0 | 0.00 | 0.00 | 0.00 | 66 | 1015.5 |
| 20260507020325 | 12 | 15 | 4.8 | 8.0 | 0.00 | 0.00 | 0.00 | 66 | 1015.4 |
| 20260507015819 | 12 | 9 | 4.8 | 6.4 | 0.00 | 0.00 | 0.00 | 66 | 1015.3 |
| 20260507015316 | 12 | 360 | 3.2 | 6.4 | 0.00 | 0.00 | 0.00 | 66 | 1015.2 |
| 20260507014829 | 12 | 350 | 4.8 | 6.4 | 0.00 | 0.00 | 0.00 | 65 | 1015.2 |
| 20260507014324 | 12 | 10 | 1.6 | 4.8 | 0.00 | 0.00 | 0.00 | 65 | 1015.0 |
| 20260507013340 | 13 | 13 | 1.6 | 4.8 | 0.00 | 0.00 | 0.00 | 65 | 1014.9 |
| 20260507012814 | 13 | 14 | 3.2 | 4.8 | 0.00 | 0.00 | 0.00 | 64 | 1014.9 |
| 20260507012329 | 13 | 24 | 3.2 | 4.8 | 0.00 | 0.00 | 0.00 | 63 | 1014.8 |
| 20260507011323 | 13 | 30 | 3.2 | 6.4 | 0.00 | 0.00 | 0.00 | 60 | 1014.8 |
| 20260507005910 | 15 | 20 | 6.4 | 9.7 | 0.00 | 0.00 | 0.00 | 58 | 1014.7 |
| 20260507002831 | 16 | 26 | 6.4 | 16.1 | 0.00 | 0.00 | 0.00 | 54 | 1014.3 |
| 20260507002406 | 16 | 21 | 11.3 | 16.1 | 0.00 | 0.00 | 0.00 | 53 | 1014.3 |
| 20260507001820 | 16 | 39 | 8.0 | 17.7 | 0.00 | 0.00 | 0.00 | 53 | 1014.2 |
| 20260506234318 | 17 | 38 | 11.3 | 19.3 | 0.00 | 0.00 | 0.00 | 50 | 1014.1 |
| 20260506233833 | 17 | 31 | 9.7 | 17.7 | 0.00 | 0.00 | 0.00 | 50 | 1014.2 |
| 20260506233348 | 17 | 31 | 12.9 | 17.7 | 0.00 | 0.00 | 0.00 | 50 | 1014.1 |
| 20260506232842 | 17 | 30 | 11.3 | 16.1 | 0.00 | 0.00 | 0.00 | 50 | 1014.1 |
| 20260506231820 | 17 | 30 | 9.7 | 20.9 | 0.00 | 0.00 | 0.00 | 51 | 1013.9 |
| 20260506231318 | 17 | 25 | 14.5 | 20.9 | 0.00 | 0.00 | 0.00 | 51 | 1013.8 |
| 20260506230335 | 17 | 35 | 9.7 | 24.1 | 0.00 | 0.00 | 0.00 | 52 | 1013.7 |
| 20260506225830 | 17 | 355 | 16.1 | 24.1 | 0.00 | 0.00 | 0.00 | 51 | 1013.6 |
| 20260506225344 | 17 | 16 | 14.5 | 24.1 | 0.00 | 0.00 | 0.00 | 50 | 1013.5 |
| 20260506222816 | 17 | 31 | 11.3 | 22.5 | 0.00 | 0.00 | 0.00 | 54 | 1013.3 |
| 20260506222329 | 17 | 41 | 14.5 | 20.9 | 0.00 | 0.00 | 0.00 | 51 | 1013.3 |
| 20260506221823 | 17 | 31 | 16.1 | 20.9 | 0.00 | 0.00 | 0.00 | 53 | 1013.3 |
| 20260506221319 | 17 | 339 | 11.3 | 27.4 | 0.00 | 0.00 | 0.00 | 54 | 1013.2 |
| 20260506220830 | 17 | 24 | 17.7 | 27.4 | 0.00 | 0.00 | 0.00 | 51 | 1013.1 |
| 20260506215317 | 17 | 49 | 14.5 | 19.3 | 0.00 | 0.00 | 0.00 | 56 | 1013.0 |
| 20260506214815 | 17 | 34 | 14.5 | 25.7 | 0.00 | 0.00 | 0.00 | 53 | 1013.2 |
| 20260506214330 | 17 | 9 | 16.1 | 25.7 | 0.00 | 0.00 | 0.00 | 53 | 1013.2 |
| 20260506213824 | 18 | 19 | 12.9 | 22.5 | 0.00 | 0.00 | 0.00 | 53 | 1013.3 |
| 20260506213319 | 17 | 59 | 12.9 | 20.9 | 0.00 | 0.00 | 0.00 | 55 | 1013.2 |
| 20260506212813 | 17 | 350 | 12.9 | 22.5 | 0.00 | 0.00 | 0.00 | 54 | 1013.3 |
| 20260506212327 | 17 | 65 | 14.5 | 22.5 | 0.00 | 0.00 | 0.00 | 53 | 1013.3 |
| 20260506211822 | 17 | 355 | 11.3 | 20.9 | 0.00 | 0.00 | 0.00 | 53 | 1013.4 |
| 20260506211317 | 17 | 13 | 14.5 | 24.1 | 0.00 | 0.00 | 0.00 | 53 | 1013.6 |
| 20260506210814 | 17 | 33 | 17.7 | 24.1 | 0.00 | 0.00 | 0.00 | 52 | 1013.5 |
| 20260506210328 | 17 | 60 | 12.9 | 24.1 | 0.00 | 0.00 | 0.00 | 56 | 1013.7 |
| 20260506205823 | 17 | 40 | 16.1 | 24.1 | 0.00 | 0.00 | 0.00 | 55 | 1013.9 |
| 20260506205317 | 17 | 53 | 8.0 | 19.3 | 0.00 | 0.00 | 0.00 | 58 | 1013.9 |
| 20260506204813 | 16 | 39 | 11.3 | 25.7 | 0.00 | 0.00 | 0.00 | 56 | 1014.0 |
| 20260506204327 | 17 | 55 | 16.1 | 24.1 | 0.00 | 0.00 | 0.00 | 55 | 1014.0 |
| 20260506203821 | 17 | 76 | 12.9 | 20.9 | 0.00 | 0.00 | 0.00 | 55 | 1014.0 |
| 20260506203320 | 17 | 28 | 11.3 | 24.1 | 0.00 | 0.00 | 0.00 | 58 | 1014.0 |
| 20260506202814 | 17 | 355 | 17.7 | 24.1 | 0.00 | 0.00 | 0.00 | 58 | 1014.0 |
| 20260506202329 | 17 | 36 | 14.5 | 22.5 | 0.00 | 0.00 | 0.00 | 56 | 1014.0 |
| 20260506201824 | 17 | 17 | 9.7 | 19.3 | 0.00 | 0.00 | 0.00 | 58 | 1014.0 |
| 20260506201319 | 17 | 22 | 11.3 | 20.9 | 0.00 | 0.00 | 0.00 | 57 | 1014.2 |
| 20260506200813 | 17 | 68 | 12.9 | 22.5 | 0.00 | 0.00 | 0.00 | 57 | 1014.3 |
| 20260506200327 | 17 | 31 | 14.5 | 22.5 | 0.00 | 0.00 | 0.00 | 56 | 1014.3 |
| 20260506195821 | 17 | 20 | 14.5 | 25.7 | 0.00 | 0.00 | 0.00 | 54 | 1014.3 |
| 20260506194815 | 17 | 38 | 16.1 | 24.1 | 0.00 | 0.00 | 0.00 | 58 | 1014.3 |
| 20260506194330 | 17 | 348 | 14.5 | 24.1 | 0.00 | 0.00 | 0.00 | 57 | 1014.3 |
| 20260506193824 | 17 | 55 | 12.9 | 22.5 | 0.00 | 0.00 | 0.00 | 58 | 1014.2 |
| 20260506193318 | 17 | 48 | 12.9 | 24.1 | 0.00 | 0.00 | 0.00 | 56 | 1014.5 |
| 20260506192328 | 17 | 54 | 12.9 | 20.9 | 0.00 | 0.00 | 0.00 | 56 | 1014.8 |
| 20260506191823 | 17 | 68 | 9.7 | 20.9 | 0.00 | 0.00 | 0.00 | 54 | 1014.8 |
| 20260506191320 | 17 | 46 | 11.3 | 24.1 | 0.00 | 0.00 | 0.00 | 59 | 1014.8 |
| 20260506190814 | 17 | 68 | 9.7 | 22.5 | 0.00 | 0.00 | 0.00 | 55 | 1014.7 |
| 20260506185825 | 17 | 5 | 6.4 | 22.5 | 0.00 | 0.00 | 0.00 | 59 | 1014.7 |
| 20260506185319 | 17 | 29 | 12.9 | 22.5 | 0.00 | 0.00 | 0.00 | 57 | 1014.7 |
| 20260506184813 | 16 | 94 | 9.7 | 16.1 | 0.00 | 0.00 | 0.00 | 61 | 1014.8 |
| 20260506184327 | 16 | 46 | 11.3 | 16.1 | 0.00 | 0.00 | 0.00 | 58 | 1015.0 |
| 20260506183822 | 16 | 54 | 6.4 | 20.9 | 0.00 | 0.00 | 0.00 | 56 | 1015.0 |
| 20260506183321 | 16 | 15 | 12.9 | 22.5 | 0.00 | 0.00 | 0.00 | 61 | 1015.0 |
| 20260506182331 | 16 | 44 | 8.0 | 17.7 | 0.00 | 0.00 | 0.00 | 61 | 1015.2 |
| 20260506181323 | 16 | 12 | 16.1 | 20.9 | 0.00 | 0.00 | 0.00 | 59 | 1015.2 |
| 20260506175830 | 16 | 75 | 12.9 | 25.7 | 0.00 | 0.00 | 0.00 | 58 | 1015.5 |
| 20260506175325 | 16 | 51 | 14.5 | 25.7 | 0.00 | 0.00 | 0.00 | 63 | 1015.7 |
| 20260506174819 | 16 | 58 | 9.7 | 22.5 | 0.00 | 0.00 | 0.00 | 59 | 1015.9 |
| 20260506174318 | 16 | 52 | 8.0 | 22.5 | 0.00 | 0.00 | 0.00 | 61 | 1015.9 |
| 20260506173812 | 16 | 44 | 9.7 | 19.3 | 0.00 | 0.00 | 0.00 | 59 | 1016.1 |
| 20260506172823 | 16 | 92 | 9.7 | 17.7 | 0.00 | 0.00 | 0.00 | 60 | 1016.4 |
| 20260506172319 | 16 | 13 | 9.7 | 25.7 | 0.00 | 0.00 | 0.00 | 60 | 1016.5 |
| 20260506171813 | 16 | 49 | 16.1 | 25.7 | 0.00 | 0.00 | 0.00 | 60 | 1016.6 |
| 20260506171328 | 15 | 67 | 14.5 | 24.1 | 0.00 | 0.00 | 0.00 | 60 | 1016.7 |
| 20260506170821 | 15 | 78 | 12.9 | 24.1 | 0.00 | 0.00 | 0.00 | 59 | 1016.8 |
| 20260506170318 | 15 | 71 | 12.9 | 22.5 | 0.00 | 0.00 | 0.00 | 60 | 1016.8 |
| 20260506165813 | 15 | 56 | 11.3 | 20.9 | 0.00 | 0.00 | 0.00 | 61 | 1016.7 |
| 20260506165328 | 15 | 68 | 12.9 | 24.1 | 0.00 | 0.00 | 0.00 | 62 | 1016.6 |
| 20260506164822 | 15 | 30 | 12.9 | 24.1 | 0.00 | 0.00 | 0.00 | 61 | 1016.7 |
| 20260506164316 | 15 | 102 | 11.3 | 22.5 | 0.00 | 0.00 | 0.00 | 60 | 1016.4 |
| 20260506163830 | 15 | 61 | 12.9 | 27.4 | 0.00 | 0.00 | 0.00 | 60 | 1016.4 |
| 20260506163325 | 15 | 58 | 16.1 | 27.4 | 0.00 | 0.00 | 0.00 | 59 | 1016.5 |
| 20260506162823 | 15 | 53 | 14.5 | 25.7 | 0.00 | 0.00 | 0.00 | 60 | 1016.5 |
| 20260506161814 | 15 | 39 | 11.3 | 25.7 | 0.00 | 0.00 | 0.00 | 62 | 1016.5 |
| 20260506161329 | 15 | 59 | 14.5 | 25.7 | 0.00 | 0.00 | 0.00 | 61 | 1016.3 |
| 20260506160320 | 15 | 38 | 14.5 | 24.1 | 0.00 | 0.00 | 0.00 | 61 | 1016.0 |
| 20260506155814 | 14 | 57 | 14.5 | 24.1 | 0.00 | 0.00 | 0.00 | 63 | 1015.9 |
| 20260506155329 | 14 | 63 | 12.9 | 22.5 | 0.00 | 0.00 | 0.00 | 62 | 1015.8 |
| 20260506154823 | 14 | 73 | 12.9 | 24.1 | 0.00 | 0.00 | 0.00 | 63 | 1015.5 |
| 20260506153818 | 14 | 60 | 17.7 | 27.4 | 0.00 | 0.00 | 0.00 | 63 | 1015.0 |
| 20260506153312 | 13 | 47 | 14.5 | 22.5 | 0.00 | 0.00 | 0.00 | 66 | 1014.9 |
| 20260506152827 | 13 | 57 | 17.7 | 25.7 | 0.00 | 0.00 | 0.00 | 64 | 1015.0 |
| 20260506151817 | 13 | 63 | 17.7 | 30.6 | 0.00 | 0.00 | 0.00 | 65 | 1014.7 |
| 20260506150828 | 13 | 45 | 12.9 | 24.1 | 0.00 | 0.00 | 0.00 | 67 | 1015.3 |
| 20260506150322 | 13 | 47 | 12.9 | 25.7 | 0.00 | 0.00 | 0.00 | 67 | 1015.2 |
| 20260506145317 | 12 | 44 | 14.5 | 22.5 | 0.00 | 0.00 | 0.00 | 67 | 1015.2 |
| 20260506144831 | 12 | 61 | 14.5 | 20.9 | 0.00 | 0.00 | 0.00 | 68 | 1015.1 |
| 20260506144326 | 12 | 26 | 12.9 | 24.1 | 0.00 | 0.00 | 0.00 | 68 | 1015.0 |
| 20260506143820 | 12 | 70 | 16.1 | 25.7 | 0.00 | 0.00 | 0.00 | 67 | 1014.8 |
| 20260506142326 | 11 | 47 | 17.7 | 27.4 | 0.00 | 0.00 | 0.00 | 71 | 1014.9 |
| 20260506141821 | 11 | 76 | 14.5 | 25.7 | 0.00 | 0.00 | 0.00 | 73 | 1014.8 |
| 20260506141320 | 11 | 52 | 11.3 | 22.5 | 0.00 | 0.00 | 0.00 | 74 | 1014.9 |
| 20260506140813 | 11 | 45 | 14.5 | 24.1 | 0.00 | 0.00 | 0.00 | 73 | 1014.9 |
| 20260506140328 | 11 | 74 | 11.3 | 20.9 | 0.00 | 0.00 | 0.00 | 73 | 1014.9 |
| 20260506135320 | 10 | 74 | 16.1 | 30.6 | 0.00 | 0.00 | 0.00 | 75 | 1015.0 |
| 20260506134814 | 10 | 70 | 17.7 | 32.2 | 0.00 | 0.00 | 0.00 | 75 | 1014.9 |
| 20260506134328 | 10 | 77 | 16.1 | 32.2 | 0.00 | 0.00 | 0.00 | 77 | 1015.0 |
| 20260506133323 | 10 | 76 | 12.9 | 24.1 | 0.00 | 0.00 | 0.00 | 79 | 1015.2 |
| 20260506132818 | 10 | 40 | 17.7 | 29.0 | 0.00 | 0.00 | 0.00 | 78 | 1015.3 |
| 20260506132313 | 10 | 5 | 20.9 | 29.0 | 0.00 | 0.00 | 0.00 | 79 | 1015.3 |
| 20260506131828 | 10 | 45 | 17.7 | 27.4 | 0.00 | 0.00 | 0.00 | 80 | 1015.0 |
| 20260506131322 | 10 | 69 | 17.7 | 24.1 | 0.00 | 0.00 | 0.00 | 81 | 1014.9 |
| 20260506130816 | 10 | 42 | 16.1 | 25.7 | 0.00 | 0.00 | 0.00 | 81 | 1015.1 |
| 20260506130331 | 10 | 61 | 14.5 | 25.7 | 0.00 | 0.00 | 0.00 | 82 | 1015.2 |
| 20260506125825 | 10 | 24 | 14.5 | 22.5 | 0.00 | 0.00 | 0.00 | 82 | 1015.2 |
| 20260506125323 | 9 | 23 | 14.5 | 24.1 | 0.00 | 0.00 | 0.00 | 83 | 1015.3 |
| 20260506124818 | 9 | 28 | 12.9 | 25.7 | 0.00 | 0.00 | 0.00 | 82 | 1015.1 |
| 20260506123829 | 9 | 49 | 16.1 | 27.4 | 0.00 | 0.00 | 0.00 | 83 | 1014.8 |
| 20260506123323 | 9 | 36 | 20.9 | 25.7 | 0.00 | 0.00 | 0.00 | 83 | 1014.6 |
| 20260506122818 | 9 | 60 | 12.9 | 24.1 | 0.00 | 0.00 | 0.00 | 84 | 1014.6 |
| 20260506122332 | 9 | 28 | 12.9 | 27.4 | 0.00 | 0.00 | 0.00 | 84 | 1014.5 |
| 20260506121826 | 9 | 42 | 16.1 | 27.4 | 0.00 | 0.00 | 0.00 | 84 | 1014.2 |
| 20260506121325 | 9 | 30 | 17.7 | 25.7 | 0.00 | 0.00 | 0.00 | 84 | 1014.4 |
| 20260506120819 | 9 | 11 | 16.1 | 24.1 | 0.00 | 0.00 | 0.00 | 84 | 1014.5 |
| 20260506120314 | 9 | 360 | 12.9 | 22.5 | 0.00 | 0.00 | 0.00 | 84 | 1014.5 |
| 20260506115827 | 9 | 41 | 11.3 | 20.9 | 0.00 | 0.00 | 0.00 | 84 | 1014.5 |
| 20260506115322 | 9 | 25 | 11.3 | 22.5 | 0.00 | 0.00 | 0.00 | 84 | 1014.4 |
| 20260506114332 | 9 | 32 | 12.9 | 20.9 | 0.00 | 0.00 | 0.00 | 84 | 1014.5 |
| 20260506113826 | 9 | 332 | 12.9 | 19.3 | 0.00 | 0.00 | 0.00 | 84 | 1014.6 |
| 20260506113325 | 9 | 11 | 8.0 | 19.3 | 0.00 | 0.00 | 0.00 | 84 | 1014.6 |
| 20260506112820 | 9 | 28 | 11.3 | 20.9 | 0.00 | 0.00 | 0.00 | 84 | 1014.5 |
| 20260506112315 | 9 | 17 | 8.0 | 20.9 | 0.00 | 0.00 | 0.00 | 84 | 1014.3 |
| 20260506110319 | 9 | 332 | 8.0 | 19.3 | 0.00 | 0.00 | 0.00 | 83 | 1014.1 |
| 20260506105813 | 9 | 34 | 9.7 | 20.9 | 0.00 | 0.00 | 0.00 | 83 | 1013.9 |
| 20260506105328 | 9 | 15 | 9.7 | 19.3 | 0.00 | 0.00 | 0.00 | 83 | 1013.9 |
| 20260506104826 | 9 | 20 | 11.3 | 19.3 | 0.00 | 0.00 | 0.00 | 83 | 1014.0 |
| 20260506104320 | 9 | 29 | 8.0 | 17.7 | 0.00 | 0.00 | 0.00 | 83 | 1013.9 |
| 20260506103815 | 9 | 355 | 11.3 | 17.7 | 0.00 | 0.00 | 0.00 | 83 | 1014.1 |
| 20260506103329 | 9 | 27 | 11.3 | 19.3 | 0.00 | 0.00 | 0.00 | 83 | 1013.9 |
| 20260506102824 | 9 | 327 | 9.7 | 16.1 | 0.00 | 0.00 | 0.00 | 83 | 1013.8 |
| 20260506102318 | 9 | 355 | 11.3 | 19.3 | 0.00 | 0.00 | 0.00 | 82 | 1013.7 |
| 20260506101812 | 9 | 348 | 8.0 | 19.3 | 0.00 | 0.00 | 0.00 | 82 | 1013.4 |
| 20260506101331 | 9 | 360 | 8.0 | 19.3 | 0.00 | 0.00 | 0.00 | 82 | 1013.4 |
| 20260506100826 | 9 | 349 | 9.7 | 20.9 | 0.00 | 0.00 | 0.00 | 81 | 1013.3 |
| 20260506100320 | 9 | 360 | 12.9 | 20.9 | 0.00 | 0.00 | 0.00 | 81 | 1013.2 |
| 20260506095330 | 9 | 355 | 9.7 | 22.5 | 0.00 | 0.00 | 0.00 | 82 | 1012.9 |
| 20260506094824 | 9 | 5 | 11.3 | 20.9 | 0.00 | 0.00 | 0.00 | 82 | 1012.8 |
| 20260506094319 | 9 | 355 | 11.3 | 20.9 | 0.00 | 0.00 | 0.00 | 81 | 1012.6 |
| 20260506093814 | 9 | 360 | 12.9 | 22.5 | 0.00 | 0.00 | 0.00 | 81 | 1012.2 |
| 20260506092827 | 9 | 36 | 16.1 | 22.5 | 0.00 | 0.00 | 0.00 | 81 | 1012.0 |
| 20260506092322 | 9 | 43 | 11.3 | 20.9 | 0.00 | 0.00 | 0.00 | 81 | 1011.7 |
| 20260506091815 | 9 | 24 | 11.3 | 19.3 | 0.00 | 0.00 | 0.00 | 81 | 1011.7 |
| 20260506091330 | 9 | 5 | 12.9 | 19.3 | 0.00 | 0.00 | 0.00 | 81 | 1011.6 |
| 20260506090824 | 9 | 30 | 11.3 | 17.7 | 0.00 | 0.00 | 0.00 | 82 | 1011.6 |
| 20260506090319 | 9 | 15 | 12.9 | 17.7 | 0.00 | 0.00 | 0.00 | 82 | 1011.4 |
| 20260506085813 | 9 | 19 | 8.0 | 17.7 | 0.00 | 0.00 | 0.00 | 82 | 1011.4 |
| 20260506084828 | 9 | 5 | 9.7 | 17.7 | 0.00 | 0.00 | 0.00 | 81 | 1011.2 |
| 20260506084323 | 9 | 30 | 9.7 | 17.7 | 0.00 | 0.00 | 0.00 | 81 | 1011.2 |
| 20260506082830 | 10 | 49 | 11.3 | 22.5 | 0.00 | 0.00 | 0.00 | 81 | 1011.1 |
| 20260506081822 | 10 | 25 | 9.7 | 17.7 | 0.00 | 0.00 | 0.00 | 81 | 1011.0 |
| 20260506081316 | 10 | 51 | 11.3 | 17.7 | 0.00 | 0.00 | 0.00 | 80 | 1011.0 |
| 20260506080815 | 10 | 43 | 8.0 | 16.1 | 0.00 | 0.00 | 0.00 | 80 | 1011.1 |
| 20260506080331 | 10 | 16 | 8.0 | 19.3 | 0.00 | 0.00 | 0.00 | 80 | 1011.2 |
| 20260506073318 | 10 | 21 | 12.9 | 17.7 | 0.00 | 0.00 | 0.00 | 80 | 1011.2 |
| 20260506072817 | 10 | 30 | 9.7 | 20.9 | 0.00 | 0.00 | 0.00 | 80 | 1011.2 |
| 20260506072331 | 10 | 31 | 9.7 | 20.9 | 0.00 | 0.00 | 0.00 | 80 | 1011.0 |
| 20260506071322 | 10 | 53 | 6.4 | 20.9 | 0.00 | 0.00 | 0.00 | 80 | 1010.8 |
| 20260506070816 | 10 | 26 | 14.5 | 20.9 | 0.00 | 0.00 | 0.00 | 79 | 1010.5 |